Date,TemperatureHighF,TemperatureAvgF,TemperatureLowF,DewpointHighF,DewpointAvgF,DewpointLowF,HumidityHigh,HumidityAvg,HumidityLow,PressureMaxIn,PressureMinIn,WindSpeedMaxMPH,WindSpeedAvgMPH,GustSpeedMaxMPH,PrecipitationSumIn
2013-2-6,35.4,33.4,31.6,22.4,21.8,21.3,66,62,58,30.02,29.98,7,5,10,0.00
2013-2-7,49.0,38.5,30.8,21.5,19.0,16.8,62,46,28,30.12,29.99,19,3,20,0.00
2013-2-8,48.8,36.2,27.0,24.2,20.3,13.8,77,54,29,29.88,29.79,13,2,14,0.00
2013-2-9,39.3,30.3,23.7,27.7,22.1,18.9,92,72,47,29.84,29.72,17,4,20,0.00
2013-2-10,29.1,24.6,18.6,24.4,18.9,8.8,93,79,62,30.10,29.69,36,12,40,0.00
2013-2-11,28.0,21.3,14.9,18.0,10.7,4.1,74,64,44,30.18,30.07,10,3,12,0.00
2013-2-12,43.9,33.9,22.4,22.8,14.9,3.2,55,46,35,30.08,29.91,17,5,22,0.00
2013-2-13,46.1,38.0,31.2,28.7,22.9,17.9,75,55,39,29.97,29.75,30,10,35,0.00
2013-2-14,32.1,25.5,16.1,22.2,15.3,8.0,90,66,45,30.38,29.96,19,7,33,0.00
2013-2-15,29.3,23.4,16.1,17.8,10.4,6.0,82,58,41,30.48,30.17,18,4,24,0.00
2013-2-16,52.6,42.6,27.0,26.3,23.6,15.7,69,48,32,30.17,29.77,23,6,26,0.00
2013-2-17,53.9,39.6,30.5,28.7,21.8,16.3,71,50,23,29.77,29.46,24,8,28,0.00
2013-2-18,30.7,25.1,12.7,22.1,15.4,8.6,85,67,54,30.24,29.73,22,8,30,0.00
2013-2-19,24.4,15.0,9.1,15.2,9.2,5.1,91,78,64,30.31,30.17,15,4,20,0.00
2013-2-20,31.6,21.1,13.9,17.3,12.4,7.1,86,69,48,30.17,29.96,17,4,24,0.00
2013-2-21,23.3,19.2,14.3,20.9,16.8,12.2,92,90,86,30.08,30.01,10,3,11,0.01
2013-2-22,34.1,24.5,12.8,28.1,18.4,10.4,93,78,49,30.08,29.85,11,2,14,0.40
2013-2-23,43.4,32.7,21.0,29.2,14.0,8.1,84,48,27,29.85,29.68,12,4,17,0.00
2013-2-24,33.5,29.7,24.5,30.3,23.7,15.8,93,78,66,30.16,29.83,16,6,25,0.01
2013-2-25,46.9,32.1,19.1,18.2,9.9,-0.1,70,43,14,30.15,29.84,18,5,23,0.00
2013-2-26,39.2,32.2,25.4,28.3,21.0,10.7,81,64,44,30.15,29.83,24,9,37,0.00
2013-2-27,36.9,28.8,20.5,21.5,18.8,14.3,85,67,45,30.30,30.15,17,4,25,0.00
2013-2-28,38.4,28.5,17.3,26.5,20.5,13.1,88,73,52,30.31,30.24,10,2,11,0.00